TimeMDT,TemperatureF,Dew PointF,Humidity,Sea Level PressureIn,VisibilityMPH,Wind Direction,Wind SpeedMPH,Gust SpeedMPH,PrecipitationIn,Events,Conditions,WindDirDegrees,DateUTC
12:15 AM,39.2,35.6,87,30.00,10.0,WSW,17.3,23.0,N/A,Rain,Light Rain,250,2013-10-04 06:15:00
12:35 AM,38.7,35.6,89,30.02,10.0,WSW,17.3,23.0,N/A,,Overcast,250,2013-10-04 06:35:00
12:55 AM,37.9,35.2,90,30.03,7.0,WSW,15.0,25.3,N/A,Rain,Light Rain,240,2013-10-04 06:55:00
1:15 AM,38.5,34.9,87,30.03,10.0,WSW,15.0,20.7,N/A,,Overcast,240,2013-10-04 07:15:00
1:35 AM,38.5,34.9,87,30.04,10.0,SSW,13.8,-,N/A,,Overcast,210,2013-10-04 07:35:00
1:55 AM,38.5,34.9,87,30.05,10.0,WSW,13.8,-,N/A,Rain,Light Rain,250,2013-10-04 07:55:00
2:15 AM,38.3,35.4,89,30.05,10.0,SSW,12.7,-,N/A,,Mostly Cloudy,210,2013-10-04 08:15:00
2:35 AM,37.2,35.2,93,30.05,10.0,SSW,12.7,-,N/A,,Scattered Clouds,210,2013-10-04 08:35:00
2:55 AM,37.4,35.2,92,30.05,10.0,SW,13.8,19.6,N/A,,Mostly Cloudy,220,2013-10-04 08:55:00
3:15 AM,39.6,31.5,73,30.04,10.0,West,12.7,19.6,N/A,,Mostly Cloudy,270,2013-10-04 09:15:00
3:35 AM,38.3,34.3,86,30.05,10.0,SW,12.7,-,N/A,,Overcast,220,2013-10-04 09:35:00
3:55 AM,37.6,34.7,89,30.05,10.0,SW,15.0,-,N/A,,Overcast,220,2013-10-04 09:55:00
4:15 AM,38.3,31.8,77,30.06,10.0,West,11.5,17.3,N/A,,Overcast,270,2013-10-04 10:15:00
4:35 AM,39.2,31.6,74,30.06,10.0,WSW,15.0,19.6,N/A,,Scattered Clouds,240,2013-10-04 10:35:00
4:55 AM,37.0,32.7,84,30.07,10.0,SW,11.5,16.1,N/A,,Scattered Clouds,230,2013-10-04 10:55:00
5:15 AM,37.4,32.2,81,30.07,10.0,North,4.6,-,N/A,,Clear,350,2013-10-04 11:15:00
5:35 AM,36.7,32.9,86,30.09,10.0,Calm,Calm,-,N/A,,Scattered Clouds,0,2013-10-04 11:35:00
5:55 AM,37.6,32.7,83,30.09,10.0,South,3.5,-,N/A,,Mostly Cloudy,180,2013-10-04 11:55:00
6:15 AM,36.7,33.1,87,30.11,10.0,WSW,4.6,-,N/A,,Overcast,240,2013-10-04 12:15:00
6:35 AM,36.9,33.1,86,30.11,10.0,WSW,10.4,16.1,N/A,,Overcast,250,2013-10-04 12:35:00
6:55 AM,36.7,32.9,86,30.13,10.0,WSW,6.9,-,N/A,,Overcast,240,2013-10-04 12:55:00
7:15 AM,37.0,33.4,87,30.14,10.0,West,5.8,-,N/A,,Overcast,270,2013-10-04 13:15:00
7:35 AM,36.9,32.7,85,30.15,10.0,West,4.6,-,N/A,,Mostly Cloudy,260,2013-10-04 13:35:00
7:55 AM,37.0,32.7,84,30.15,10.0,WSW,6.9,-,N/A,,Mostly Cloudy,250,2013-10-04 13:55:00
8:15 AM,37.6,32.7,83,30.17,10.0,West,6.9,-,N/A,,Mostly Cloudy,260,2013-10-04 14:15:00
8:35 AM,37.6,32.9,83,30.17,10.0,SW,3.5,-,N/A,,Scattered Clouds,230,2013-10-04 14:35:00
8:55 AM,38.7,33.1,80,30.17,10.0,Calm,Calm,-,N/A,,Scattered Clouds,0,2013-10-04 14:55:00
9:15 AM,40.3,33.4,77,30.18,10.0,SW,3.5,-,N/A,,Scattered Clouds,230,2013-10-04 15:15:00
9:35 AM,41.5,33.4,73,30.19,10.0,South,3.5,-,N/A,,Mostly Cloudy,170,2013-10-04 15:35:00
9:55 AM,41.7,32.5,70,30.20,10.0,Calm,Calm,-,N/A,,Scattered Clouds,0,2013-10-04 15:55:00
10:15 AM,43.2,33.6,69,30.20,10.0,Calm,Calm,-,N/A,,Mostly Cloudy,0,2013-10-04 16:15:00
10:35 AM,43.0,32.4,66,30.19,10.0,SSW,6.9,-,N/A,,Mostly Cloudy,210,2013-10-04 16:35:00
10:55 AM,45.1,32.2,60,30.20,10.0,North,3.5,-,N/A,,Scattered Clouds,360,2013-10-04 16:55:00
11:15 AM,46.0,30.2,54,30.20,10.0,WSW,4.6,-,N/A,,Mostly Cloudy,250,2013-10-04 17:15:00
11:35 AM,47.7,30.6,52,30.21,10.0,SW,6.9,-,N/A,,Mostly Cloudy,220,2013-10-04 17:35:00
11:55 AM,48.7,30.7,50,30.20,10.0,WSW,10.4,16.1,N/A,,Scattered Clouds,240,2013-10-04 17:55:00
12:15 PM,49.5,30.4,48,30.21,10.0,West,9.2,18.4,N/A,,Mostly Cloudy,260,2013-10-04 18:15:00
12:35 PM,48.6,29.3,47,30.21,10.0,WSW,10.4,17.3,N/A,,Mostly Cloudy,250,2013-10-04 18:35:00
12:55 PM,49.6,29.8,47,30.21,10.0,West,16.1,20.7,N/A,,Mostly Cloudy,260,2013-10-04 18:55:00
1:15 PM,49.3,29.5,46,30.21,10.0,West,17.3,20.7,N/A,,Mostly Cloudy,270,2013-10-04 19:15:00
1:35 PM,45.7,31.6,58,30.22,7.0,West,19.6,25.3,N/A,,Mostly Cloudy,280,2013-10-04 19:35:00
1:55 PM,46.4,30.7,54,30.21,10.0,West,18.4,24.2,N/A,,Mostly Cloudy,270,2013-10-04 19:55:00
2:15 PM,50.7,29.5,44,30.20,10.0,West,20.7,27.6,N/A,,Mostly Cloudy,260,2013-10-04 20:15:00
2:35 PM,51.4,32.0,47,30.21,7.0,WNW,21.9,26.5,N/A,,Overcast,290,2013-10-04 20:35:00
2:55 PM,49.8,31.3,49,30.21,10.0,WNW,13.8,18.4,N/A,,Overcast,300,2013-10-04 20:55:00
3:15 PM,52.3,28.2,39,30.22,10.0,West,16.1,20.7,N/A,,Overcast,270,2013-10-04 21:15:00
3:35 PM,51.6,29.5,43,30.21,10.0,SSW,11.5,23.0,N/A,,Mostly Cloudy,200,2013-10-04 21:35:00
3:55 PM,52.0,28.4,40,30.21,10.0,West,15.0,23.0,N/A,,Overcast,270,2013-10-04 21:55:00
4:15 PM,52.5,26.1,36,30.22,7.0,West,16.1,25.3,N/A,,Overcast,280,2013-10-04 22:15:00
4:35 PM,51.3,23.2,33,30.23,10.0,WSW,4.6,20.7,N/A,,Overcast,250,2013-10-04 22:35:00
4:55 PM,50.2,29.8,46,30.24,10.0,West,11.5,17.3,N/A,,Overcast,280,2013-10-04 22:55:00
5:15 PM,50.0,29.1,45,30.25,10.0,West,13.8,21.9,N/A,,Overcast,270,2013-10-04 23:15:00
5:35 PM,49.8,21.7,33,30.26,10.0,WNW,8.1,11.5,N/A,,Overcast,300,2013-10-04 23:35:00
5:55 PM,49.1,21.9,34,30.28,10.0,NW,13.8,20.7,N/A,,Overcast,320,2013-10-04 23:55:00
6:15 PM,47.7,26.6,44,30.28,10.0,WSW,13.8,-,N/A,,Mostly Cloudy,250,2013-10-05 00:15:00
6:35 PM,43.9,28.9,56,30.28,10.0,WSW,11.5,-,N/A,,Scattered Clouds,240,2013-10-05 00:35:00
6:55 PM,43.3,28.8,56,30.27,10.0,WSW,11.5,17.3,N/A,,Clear,240,2013-10-05 00:55:00
7:15 PM,43.0,27.0,53,30.27,10.0,WSW,11.5,18.4,N/A,,Clear,240,2013-10-05 01:15:00
7:35 PM,42.1,27.5,56,30.28,10.0,NE,9.2,-,N/A,,Clear,50,2013-10-05 01:35:00
7:55 PM,39.7,29.8,68,30.28,10.0,Calm,Calm,-,N/A,,Clear,0,2013-10-05 01:55:00
8:15 PM,39.4,30.2,70,30.30,10.0,NW,6.9,-,N/A,,Clear,320,2013-10-05 02:15:00
8:35 PM,39.9,29.7,67,30.31,10.0,NW,5.8,-,N/A,,Clear,310,2013-10-05 02:35:00
8:55 PM,38.5,28.6,68,30.32,10.0,ENE,3.5,-,N/A,,Clear,70,2013-10-05 02:55:00
9:15 PM,37.9,29.1,71,30.33,10.0,Calm,Calm,-,N/A,,Clear,0,2013-10-05 03:15:00
9:35 PM,36.5,29.3,75,30.34,10.0,NE,5.8,-,N/A,,Clear,40,2013-10-05 03:35:00
9:55 PM,36.7,29.1,74,30.34,10.0,NE,8.1,-,N/A,,Clear,40,2013-10-05 03:55:00
10:15 PM,37.0,28.9,73,30.35,10.0,Calm,Calm,-,N/A,,Clear,0,2013-10-05 04:15:00
10:35 PM,36.3,28.9,75,30.36,10.0,Calm,Calm,-,N/A,,Mostly Cloudy,0,2013-10-05 04:35:00
10:55 PM,35.6,28.9,77,30.36,10.0,NNE,8.1,-,N/A,,Mostly Cloudy,20,2013-10-05 04:55:00
11:15 PM,36.1,29.1,76,30.37,10.0,North,8.1,-,N/A,,Overcast,360,2013-10-05 05:15:00
11:35 PM,37.4,28.8,71,30.37,10.0,NNE,8.1,-,N/A,,Overcast,20,2013-10-05 05:35:00
11:55 PM,37.9,28.4,69,30.37,10.0,NNE,8.1,-,N/A,,Overcast,20,2013-10-05 05:55:00